STARLINK-32220, 60370

Orbit data source: Space-Track

STARLINK-32220, 60370 is a payload satellite owned by SpaceX/Seattle (US) in LEO that was launched on Sun, 04 Aug 2024 UTC via an FALCON 9 launch vehicle from the Air Force Western Test Range (AFWTR). Payload-class satellites include a variety of spacecraft equipped with specific instruments for various scientific and technological missions. These include communications satellites like Starlink; space stations such as the ISS; scientific satellites like the Hubble; Earth observation satellites from companies like Planet Labs, Umbra, and HawkEye 360; GPS; miniature CubeSats for education and research; and military/defense satellites.

Loading next visibility...
Identifier
60370, 2024-138R
Orbit
LEO
Country
Flag of USUS
Related business
Manufacturer
SpaceX/Seattle
Mission
Operational Commercial Communications
Bus & Motor
STARLINK V2M, Unknown motor
Mass
730 kg wet, ~700 kg dry
Launch date (UTC)
2024-08-04 (2 years ago)
Launch vehicle
FALCON 9
Launch site
Air Force Western Test Range (AFWTR)
Object type
Payload
Rocket body
Debris
Shape & HBR
Box + 2 Pan, 17.7 m
Radar Cross Section
33.884 m², Large (>1 m²)

Expand to show TLE details & history
Last TLE update: 1 day ago

TLE from 1 day ago
0 STARLINK-32220
1 60370U 24138R   26257.43579506 -.00001635  00000-0 -37286-4 0  9992
2 60370  53.1623 152.3164 0001429  96.8529 263.2636 15.34375580119533
Epoch: 2026-09-14T10:27Z
TLE epoch observation values (Epoch: 2026-09-14T10:27:32.693Z)
Latitude
-0.00002°
Longitude
2.01404°
Altitude
463.792 km
Speed
7.636 km/s
True Right ascension
10h 09m 15s
True Declination
0° 00' 00"
Sunlit
Object was in daylight at epoch
Visualization orbit readout
Latitude
Unknown
Longitude
Unknown
Altitude
Unknown
Speed
Unknown
Apparent Right ascension
Unknown
Apparent Declination
Unknown
Sunlit
N/A
Visualization observer readout
Local Sidereal Time
10:21:52
Azimuth
Unknown
Elevation
Unknown
Doppler factor
Unknown
Orbital elements
Apogee altitude
464.01 km
Perigee altitude
462.055 km
Semi-major axis
6,841.169 km
Eccentricity
0.00014
Inclination
53.1623°
RAAN
152.3164°
Arg. of periapsis
96.8529°
True anomaly
263.24734°
Mean anomaly
263.2636°
Eccentric anomaly
263.25547°
Mean motion
3.83573 °/min
Orbital period
93.85 mins
BSTAR
-0.000037286
Loading maneuver chart data...
Computing Atmospheric mass density...
Loading historical data...
Loading historical data...
Loading historical data...
Loading historical data...
Loading historical data...
Loading historical data...
Loading historical data...

Documentation

Showing up to 5 results
|